This is the latest recevied weather packets stored in our database for station/object N3AVN. If no packets are shown the sender has not sent any weather packets the latest 10 day(s).
| Time | Temp. | Humidity | Pressure | Rain* | Wind** | Luminosity | Snow |
|---|---|---|---|---|---|---|---|
| 1777998344 | 25° C | 52% | 1007 hPa | 0 mm | - | 688 W/m² | - |
| 1777998041 | 25.56° C | 49% | 1007.3 hPa | 0 mm | - | 706 W/m² | - |
| 1777997738 | 25° C | 51% | 1007.6 hPa | 0 mm | - | 391 W/m² | - |
| 1777997435 | 25° C | 50% | 1007.5 hPa | 0 mm | - | 711 W/m² | - |
| 1777997133 | 24.44° C | 51% | 1007.6 hPa | 0 mm | - | 604 W/m² | - |
| 1777996830 | 24.44° C | 51% | 1007.7 hPa | 0 mm | - | 741 W/m² | - |
| 1777996526 | 24.44° C | 52% | 1007.8 hPa | 0 mm | - | 668 W/m² | - |
| 1777996222 | 23.89° C | 52% | 1007.6 hPa | 0 mm | - | 590 W/m² | - |
| 1777995913 | 23.89° C | 53% | 1007.8 hPa | 0 mm | - | 664 W/m² | - |
| 1777995609 | 24.44° C | 53% | 1008 hPa | 0 mm | - | 639 W/m² | - |
| 1777995307 | 23.33° C | 55% | 1008 hPa | 0 mm | - | 703 W/m² | - |
| 1777995004 | 23.33° C | 55% | 1008 hPa | 0 mm | - | 612 W/m² | - |
| 1777994701 | 22.78° C | 55% | 1008.3 hPa | 0 mm | - | 692 W/m² | - |
| 1777994396 | 22.78° C | 56% | 1008.4 hPa | 0 mm | - | 603 W/m² | - |
| 1777994091 | 23.89° C | 57% | 1008.3 hPa | 0 mm | - | 672 W/m² | - |
| 1777993789 | 22.78° C | 57% | 1008.3 hPa | 0 mm | - | 654 W/m² | - |
| 1777993486 | 22.22° C | 59% | 1008.5 hPa | 0 mm | - | 608 W/m² | - |
| 1777993186 | 22.22° C | 60% | 1008.5 hPa | 0 mm | - | 659 W/m² | - |
| 1777992883 | 21.67° C | 60% | 1008.6 hPa | 0 mm | - | 678 W/m² | - |
| 1777992582 | 21.67° C | 63% | 1008.6 hPa | 0 mm | - | 686 W/m² | - |
| 1777992279 | 20.56° C | 62% | 1008.7 hPa | 0 mm | - | 661 W/m² | - |
| 1777991976 | 20.56° C | 61% | 1008.6 hPa | 0 mm | - | 637 W/m² | - |
| 1777991674 | 21.11° C | 64% | 1008.6 hPa | 0 mm | - | 647 W/m² | - |
| 1777991371 | 20.56° C | 65% | 1008.7 hPa | 0 mm | - | 602 W/m² | - |
| 1777991068 | 19.44° C | 67% | 1008.8 hPa | 0 mm | - | 585 W/m² | - |
* Rain latest hour (hover to see other rain measurements)
** Current wind speed in m/s (hover to see current wind gust speed)